This is the latest recevied weather packets stored in our database for station/object I3LPO-3. If no packets are shown the sender has not sent any weather packets the latest 10 day(s).
| Time | Temp. | Humidity | Pressure | Rain* | Wind** | Luminosity | Snow |
|---|---|---|---|---|---|---|---|
| 1777586315 | 10.56° C | 38% | 1028.8 hPa | - | - | - | - |
| 1777585114 | 11.11° C | 38% | 1028.6 hPa | - | - | - | - |
| 1777583913 | 11.67° C | 38% | 1028.4 hPa | - | - | - | - |
| 1777582712 | 11.67° C | 38% | 1028.2 hPa | - | - | - | - |
| 1777582244 | 11.67° C | 38% | 1028.2 hPa | - | - | - | - |
| 1777581967 | 11.67° C | 38% | 1028.1 hPa | - | - | - | - |
| 1777580765 | 11.67° C | 38% | 1027.8 hPa | - | - | - | - |
| 1777579564 | 12.22° C | 38% | 1027.6 hPa | - | - | - | - |
| 1777578362 | 12.22° C | 39% | 1027.3 hPa | - | - | - | - |
| 1777577161 | 12.78° C | 39% | 1027.1 hPa | - | - | - | - |
| 1777577041 | 12.78° C | 39% | 1027 hPa | - | - | - | - |
| 1777575837 | 13.33° C | 39% | 1026.7 hPa | - | - | - | - |
| 1777574633 | 13.89° C | 39% | 1026.5 hPa | - | - | - | - |
| 1777573430 | 13.89° C | 39% | 1026.2 hPa | - | - | - | - |
| 1777572226 | 14.44° C | 39% | 1025.7 hPa | - | - | - | - |
| 1777571023 | 15° C | 39% | 1025.5 hPa | - | - | - | - |
| 1777569819 | 15° C | 39% | 1025.4 hPa | - | - | - | - |
| 1777568616 | 15° C | 39% | 1025.1 hPa | - | - | - | - |
| 1777567412 | 15.56° C | 39% | 1025 hPa | - | - | - | - |
| 1777566600 | 15.56° C | 39% | 1024.8 hPa | - | - | - | - |
| 1777565399 | 16.11° C | 39% | 1024.6 hPa | - | - | - | - |
| 1777564198 | 16.11° C | 39% | 1024.5 hPa | - | - | - | - |
| 1777562997 | 16.11° C | 39% | 1024.5 hPa | - | - | - | - |
| 1777562697 | 16.11° C | 39% | 1024.5 hPa | - | - | - | - |
| 1777561496 | 16.67° C | 39% | 1024.5 hPa | - | - | - | - |
* Rain since midnight (hover to see other rain measurements)
** Current wind speed in m/s (hover to see current wind gust speed)